Dewpoint
22 20 24 27 28 21 22 27 26 28 24 33 36 37 38 45 51 48 48 51 53 54 57 57 59 59 59 62 63 62 62 62 60 58 56 56 55 55 59 59 59 59 57 56
23 20 22 17 15 22 23 27 28 28 27 33 36 45 47 49 51 46 50 53 54 55 55 56 56 57 58 60 60 61 61 62 60 57 57 57 56 55 54 59 58 58 57 56
20 23 19 17 22 20 23 25 24 22 34 42 44 47 49 53 54 53 47 50 50 50 52 53 53 54 51 58 59 59 60 61 61 60 56 56 55 54 52 51 52 55 56 56
19 22 17 18 23 17 21 23 22 34 33 42 44 38 45 49 51 53 47 45 46 48 48 48 49 50 51 51 56 58 60 60 58 60 57 57 52 51 53 51 54 56 56 55
19 16 20 26 25 20 19 24 34 38 40 41 41 35 42 48 47 49 45 44 45 45 44 43 42 46 48 50 51 56 60 59 59 60 58 53 54 52 53 53 56 55 53 55
18 22 25 27 21 28 29 33 33 39 36 42 42 38 47 45 43 50 44 43 43 42 41 43 44 45 48 49 49 54 58 58 58 58 57 56 55 56 54 53 52 51 52 51
22 20 22 20 20 27 26 27 25 32 33 33 39 40 41 44 46 46 44 43 41 40 40 41 44 43 49 49 51 50 56 56 56 55 56 55 55 55 53 54 52 54 51 52
22 25 24 26 21 22 22 29 29 29 19 27 39 37 45 41 42 44 44 43 42 41 41 40 44 46 46 48 52 50 54 53 54 54 55 55 55 53 53 54 54 53 53 53
31 29 28 24 21 24 28 26 26 29 30 31 37 46 43 43 42 42 43 44 44 42 42 41 43 47 49 50 53 51 53 53 52 55 55 55 55 55 55 55 57 54 56 56
37 32 27 26 23 29 32 32 28 26 25 25 35 41 39 43 41 43 44 44 45 42 40 40 43 50 49 48 51 51 49 50 50 52 52 53 54 55 55 56 56 56 57 56
31 33 29 29 31 23 20 26 29 30 31 28 25 31 41 43 44 42 42 42 43 41 39 38 42 47 48 46 44 49 48 46 47 52 53 54 54 55 56 55 55 55 56 56
32 37 28 37 37 32 25 24 33 29 31 31 31 43 42 42 43 43 43 43 44 42 41 39 41 45 47 47 46 47 49 45 47 51 52 53 54 55 56 56 55 55 55 55
39 34 28 35 39 38 28 27 28 35 44 41 32 36 44 42 43 43 43 44 44 43 41 42 41 44 46 47 49 47 47 45 46 49 47 52 54 54 56 57 57 56 55 55
57 43 35 33 32 23 24 28 28 33 34 31 33 38 42 42 43 43 44 43 42 42 41 43 44 44 45 48 48 48 49 47 47 47 48 52 54 54 55 57 57 55 55 54
52 37 32 27 24 22 22 23 25 27 28 30 31 38 44 46 48 45 46 43 42 41 40 43 46 46 45 48 49 49 49 50 49 47 48 52 54 54 54 56 56 56 55 54
55 43 35 29 27 26 24 25 28 27 30 31 39 41 42 42 45 47 43 42 42 40 40 42 46 47 47 47 47 49 49 50 51 49 46 49 50 53 54 55 56 55 55 55
51 44 37 31 35 32 26 31 29 29 31 37 35 38 40 39 42 43 43 41 43 41 41 43 47 49 50 49 50 49 49 51 51 48 46 47 49 52 53 53 55 56 56 56
54 53 42 37 36 28 37 36 33 30 33 37 37 42 38 38 43 39 44 46 45 42 42 44 47 50 51 49 49 51 47 50 49 48 46 46 48 49 51 54 55 57 58 57
55 51 38 36 29 28 36 36 34 35 42 44 38 38 37 39 40 44 46 46 45 46 45 47 49 51 53 50 50 49 48 49 46 45 46 46 47 50 52 53 55 56 58 58
47 53 42 35 29 31 41 39 38 39 34 42 37 37 38 40 37 44 49 45 46 46 47 48 49 51 53 52 52 51 49 48 46 46 47 47 49 52 53 53 56 58 58 56
43 45 40 33 31 35 42 40 37 30 43 44 40 39 41 45 52 55 49 47 49 49 50 49 49 53 53 52 52 51 50 48 47 47 47 49 52 55 55 55 55 58 58 57
45 44 39 39 33 37 43 40 38 51 55 48 47 43 43 54 51 50 46 47 45 46 47 47 50 54 54 51 51 51 51 50 49 49 49 51 55 52 51 53 56 56 56 56
42 46 45 43 45 56 46 57 56 56 52 48 50 47 41 49 47 46 47 47 45 44 49 46 50 54 54 53 52 51 51 48 48 51 52 53 53 54 55 56 55 53 53 51
46 46 39 42 42 48 47 49 51 47 49 50 51 50 46 47 48 47 48 50 47 46 47 49 47 51 55 54 51 51 50 49 50 52 54 55 55 55 56 55 54 52 53 52
40 44 48 44 42 42 46 48 48 46 47 47 49 47 47 48 49 49 49 53 48 48 47 49 51 54 51 53 51 51 50 51 53 55 54 55 54 56 55 56 54 54 58 53
40 48 36 44 52 53 54 51 51 47 45 49 49 47 46 44 50 49 50 54 52 49 49 51 52 54 52 49 50 51 52 52 55 56 53 52 52 51 52 53 56 47 46 45
Lifted_Index
0 -0 -0 -0 -0 -1 -0 -0 0 1 0 -1 -1 -2 -2 -1 -2 -2 -3 -3 -3 -3 -3 -2 -1 -1 -1 -1 -0 0 1 1 2 2 2 2 2 2 2 1 2 2 3 3
-0 -1 -0 -0 -0 -0 -0 -0 0 0 -0 -1 -1 -1 -1 -1 -2 -2 -3 -3 -3 -3 -2 -1 -1 -0 0 0 0 1 1 1 2 2 3 3 3 3 3 2 2 3 3 3
-1 -1 -0 -0 -0 -0 -0 -0 -0 -0 -1 -1 -1 -1 -1 -1 -1 -2 -2 -2 -2 -1 -1 -0 0 1 1 2 1 1 2 2 2 3 4 4 4 4 4 3 3 3 3 3
-1 -1 -0 -0 -0 -0 -0 -0 -0 -1 -1 -1 -0 -0 -0 -0 -1 -2 -2 -2 -1 -0 0 1 1 2 2 3 2 2 2 2 3 3 4 5 5 5 4 4 3 2 2 2
-1 -1 -0 -0 -0 0 -0 -0 -0 -0 -0 -1 -0 0 -0 -0 -1 -1 -2 -2 -1 0 1 2 2 3 3 3 3 3 3 3 3 4 5 5 5 5 4 3 3 2 2 2
-1 -1 -0 0 0 1 0 -0 -0 -0 -0 -0 -0 -0 -1 -1 -1 -1 -2 -1 -1 0 1 2 2 3 3 3 3 3 3 4 4 4 5 5 5 4 4 3 3 2 1 1
-1 -0 0 1 1 1 1 -0 -0 -0 -1 -0 0 -0 -1 -1 -1 -2 -1 -1 -0 0 1 2 2 2 3 3 3 3 4 4 5 5 5 5 5 5 4 3 3 2 1 1
-1 -0 0 1 1 1 1 0 -0 -0 -0 -0 -0 -1 -1 -2 -1 -1 -1 -1 -0 1 1 2 2 2 2 3 3 4 4 5 5 6 6 6 5 5 4 3 3 2 1 0
-0 -0 0 1 2 2 1 1 1 0 -0 -0 -0 -1 -1 -1 -1 -1 -1 -0 -0 0 1 2 2 2 2 3 3 4 5 5 6 6 6 6 5 4 4 3 2 2 1 0
-0 -0 0 1 1 1 1 1 1 1 -0 -1 -1 -1 -1 -1 -1 -1 -1 -1 -0 -0 1 2 2 2 2 3 3 4 5 6 7 6 6 6 5 4 3 3 2 2 1 1
-0 -0 0 0 0 1 1 1 1 1 0 -0 -1 -1 -1 -2 -2 -1 -1 -1 -0 0 1 2 2 2 2 3 4 5 6 7 7 7 6 6 5 4 3 3 2 2 1 1
-0 0 0 -0 0 1 1 2 2 1 1 -0 -0 -1 -1 -1 -1 -1 -1 -0 0 1 1 2 2 2 3 3 4 5 6 7 7 7 7 6 5 4 3 2 2 2 2 2
-1 -0 -0 -0 -0 0 1 2 2 1 0 -0 -1 -1 -1 -1 -1 -1 -0 0 1 1 2 2 2 2 3 3 4 5 6 7 7 7 7 6 5 4 3 2 2 2 2 2
-1 -1 -0 -0 -0 0 0 1 1 1 0 -0 -1 -1 -1 -1 -1 -1 -0 0 1 2 2 2 2 2 3 3 4 5 6 7 7 7 7 6 5 4 3 3 2 2 2 3
-1 -1 -0 -0 0 1 0 0 0 1 1 0 -1 -1 -2 -1 -1 -1 -0 0 1 2 2 2 2 2 3 3 4 4 5 6 6 7 7 6 5 5 4 3 2 2 3 3
-1 -1 -1 -1 -0 0 0 0 0 1 1 1 -0 -1 -1 -1 -1 -1 -0 1 1 2 2 2 2 2 2 3 4 4 5 6 6 7 7 6 6 5 4 3 3 2 2 3
-2 -2 -1 -1 -1 -0 -0 -0 0 1 1 1 0 -0 -0 -0 -0 0 0 1 1 2 2 2 1 2 2 3 4 4 5 5 6 6 7 7 6 5 5 4 3 2 2 2
-3 -2 -1 -1 -1 -1 -1 -0 1 1 1 0 0 1 1 1 0 1 1 1 1 2 2 2 1 2 2 3 3 4 5 5 6 6 7 7 6 6 5 4 3 3 2 2
-3 -2 -2 -1 -1 -1 -1 0 1 1 0 0 1 1 1 1 1 1 1 1 2 2 2 2 2 2 2 3 3 4 5 5 6 6 6 7 6 6 5 4 4 3 3 2
-3 -2 -2 -1 -1 -1 -1 0 1 1 1 1 2 2 2 1 1 1 1 1 2 2 2 2 1 2 2 3 3 4 4 5 6 6 6 6 6 6 5 5 4 3 3 3
-2 -2 -2 -1 -1 -1 -1 -0 1 1 1 2 3 3 2 1 -0 0 1 2 2 2 2 2 1 1 2 2 3 3 4 5 6 6 6 6 6 5 5 5 4 3 3 3
-2 -2 -2 -2 -1 -1 -1 -1 -0 0 1 2 2 3 2 0 -0 0 1 2 2 2 2 2 1 1 1 2 3 3 4 5 6 6 6 5 5 5 5 5 4 4 3 3
-2 -2 -2 -2 -2 -2 -2 -1 -1 -0 0 1 2 2 2 1 1 1 2 2 2 2 2 2 2 1 1 2 2 3 4 5 5 5 5 5 5 5 5 4 4 4 4 4
-2 -2 -2 -1 -1 -2 -2 -2 -1 -0 0 1 1 2 2 2 1 1 1 1 1 2 2 2 2 1 1 1 2 2 3 4 5 5 5 4 4 4 4 4 4 4 4 4
-2 -2 -1 -1 -1 -2 -2 -1 -1 -0 0 0 0 1 2 2 1 1 1 1 1 2 2 2 2 1 1 1 2 2 3 3 4 4 4 4 4 4 4 4 4 4 4 4
-2 -1 -1 -1 -2 -2 -2 -2 -1 -0 0 0 0 1 1 2 1 1 1 1 1 1 2 2 1 1 1 1 2 2 2 3 3 3 3 4 4 4 4 4 4 4 4 4